Wind_Speed
21 21 21 21 20 20 20 20 20 19 18 18 18 17 17 22 25 27 7 8 4 3 5 6 4 8 5 4 4 4 2 6 6 7 3 4 4 2 6 5 3 11 5 12 31
22 23 23 23 23 23 22 22 21 19 18 18 18 17 17 20 25 15 7 3 3 6 7 3 2 8 2 5 4 4 4 7 6 5 2 4 3 5 5 1 1 2 5 28 36
23 23 24 24 24 24 24 24 22 20 18 17 17 16 15 17 7 6 6 5 9 8 13 7 5 2 2 2 4 4 5 8 5 3 4 5 3 4 4 5 6 13 19 21 21
24 24 25 25 25 25 24 22 21 20 18 16 14 14 14 6 5 4 8 11 12 5 11 7 3 3 1 3 4 4 5 6 3 3 3 4 5 7 6 7 6 12 26 21 20
25 25 25 27 27 27 24 23 21 20 17 14 12 10 6 3 9 8 9 11 10 2 14 6 4 4 3 2 7 4 3 5 5 7 9 4 7 7 13 10 10 11 15 23 23
26 26 27 28 28 26 25 24 21 19 16 14 10 8 4 9 7 5 4 8 10 5 5 4 6 7 3 2 5 3 6 6 5 5 5 1 6 5 10 7 8 22 23 24 25
29 28 28 28 27 26 24 24 21 19 13 9 6 6 5 15 6 11 15 18 12 5 2 6 10 3 4 4 2 5 7 8 6 4 6 8 8 20 18 4 7 21 25 18 17
30 30 30 27 25 24 22 22 21 15 7 3 4 4 6 11 14 20 14 12 12 8 12 15 12 6 4 4 6 4 2 4 3 10 7 8 18 6 7 6 12 25 22 9 4
31 31 29 26 23 20 19 20 13 3 4 6 3 4 8 10 8 11 8 5 6 7 7 9 7 5 2 2 4 3 3 6 3 10 7 14 7 8 8 6 11 20 17 13 10
32 31 27 22 19 18 16 14 7 7 6 5 1 1 6 2 9 20 4 5 2 2 4 3 3 3 2 3 5 5 3 3 8 6 17 7 9 9 4 10 13 17 15 15 15
32 29 21 20 18 15 15 4 4 2 4 6 4 4 10 11 10 2 2 5 1 4 3 3 1 4 4 4 3 10 10 7 7 6 5 14 1 12 8 3 8 12 14 15 14
32 26 19 19 20 9 5 1 1 4 7 8 13 11 20 9 5 4 9 4 3 4 2 3 4 4 4 4 6 8 8 12 13 14 6 4 14 11 6 5 11 11 13 13 13
28 20 20 20 13 3 5 1 1 2 1 7 5 4 4 10 4 7 8 5 5 5 5 6 5 6 10 6 7 8 10 9 8 12 6 4 1 5 6 4 6 8 19 15 21
24 17 19 22 4 10 3 2 3 1 3 6 2 2 3 3 5 9 10 6 2 8 4 5 6 12 8 12 9 10 7 13 11 6 4 8 4 7 6 7 7 8 11 17 16
23 17 19 17 13 5 1 6 3 2 3 9 2 1 12 6 2 4 7 5 7 6 5 6 2 4 11 15 10 6 4 8 8 9 6 4 3 11 8 6 7 8 9 15 19
19 13 20 11 11 8 2 4 2 4 5 7 3 15 11 10 6 5 2 1 4 5 1 6 4 3 3 9 11 3 4 8 6 2 3 8 8 4 7 12 5 6 9 12 15
19 9 16 13 6 8 1 3 4 5 6 10 12 13 14 5 6 5 8 10 5 3 5 3 7 5 5 2 3 7 4 5 5 5 5 7 5 7 17 12 9 10 15 13 16
17 6 12 17 15 11 5 5 7 8 6 9 10 17 4 7 2 7 3 4 7 10 2 2 6 11 10 11 6 4 8 3 4 6 4 5 8 5 11 10 12 13 16 15 16
14 5 12 15 13 4 5 5 3 5 8 8 13 5 3 2 2 3 4 4 8 12 5 2 5 2 21 9 9 7 5 5 4 5 3 5 4 3 11 10 8 11 14 14 11
11 8 13 18 1 5 5 1 4 3 8 1 3 3 5 6 4 3 3 4 5 9 11 3 4 7 10 8 3 5 6 7 4 6 6 3 3 7 10 13 10 10 10 11 14
6 3 13 14 1 5 2 4 5 6 2 3 2 4 6 4 4 5 5 4 6 10 15 4 2 2 7 6 9 3 2 9 3 3 5 4 4 6 12 10 13 11 14 17 18
7 3 16 17 5 1 3 6 7 6 3 2 0 4 4 5 4 4 4 4 7 8 8 5 3 2 2 4 7 3 4 6 1 2 0 4 3 4 11 11 17 16 17 18 20
3 3 7 7 3 4 7 6 4 5 5 2 3 8 6 4 5 5 4 3 7 7 6 6 1 2 1 1 6 3 10 12 4 2 3 6 4 4 7 12 20 22 20 19 21
3 4 4 4 1 1 5 6 8 8 5 5 4 4 7 3 5 6 4 2 3 3 6 6 4 6 4 2 8 4 17 10 5 1 2 2 2 5 14 20 20 25 23 23 20
4 1 0 4 4 7 3 4 6 7 4 5 4 11 11 3 3 4 5 2 2 3 2 3 4 4 5 7 8 9 15 3 6 6 3 7 5 8 16 23 22 23 25 23 21
2 3 3 4 5 6 5 5 6 9 4 9 6 16 12 4 5 14 16 3 3 2 3 0 3 2 2 3 7 9 11 9 5 5 8 15 11 12 15 19 23 25 24 23 20
5 2 1 4 5 4 2 4 9 10 9 9 13 12 10 8 15 19 12 6 6 1 2 2 0 1 4 4 8 8 9 4 4 6 13 13 9 18 17 19 24 21 21 23 21
Wind_Direction
342 337 334 332 329 326 324 322 322 322 319 318 319 318 318 313 315 314 253 243 267 166 243 306 326 347 194 201 192 127 180 223 213 191 203 29 82 210 228 173 198 182 158 142 141
338 335 332 330 326 325 321 320 318 318 316 314 314 314 315 321 321 276 271 262 324 230 262 256 316 5 316 195 193 167 193 216 200 192 222 46 73 325 2 335 320 137 121 150 149
337 333 330 329 326 324 321 319 316 312 311 311 311 313 315 327 318 257 102 38 338 271 233 234 253 26 313 277 222 194 208 226 268 299 308 128 345 292 307 233 168 204 153 159 154
336 334 331 329 327 325 321 319 317 313 308 308 309 311 317 329 301 216 167 330 343 254 215 188 178 162 151 236 293 264 218 246 273 324 326 75 343 312 251 227 208 218 168 152 164
336 333 330 327 325 322 320 319 319 315 313 304 303 308 325 252 254 258 302 297 351 133 160 151 124 155 178 194 337 236 274 281 288 277 276 140 256 244 273 272 263 191 189 166 176
335 333 330 329 326 322 320 320 318 309 303 298 294 293 255 266 251 295 307 301 327 347 126 161 182 195 240 236 163 302 284 271 270 255 275 232 254 207 252 167 288 173 189 179 186
334 333 331 328 327 322 321 318 313 306 298 286 280 271 250 251 254 295 279 289 279 286 256 229 230 164 186 285 223 258 308 288 230 170 231 181 262 232 242 255 243 197 192 188 185
335 336 334 332 327 326 331 329 324 300 278 256 216 247 255 269 293 293 288 266 246 254 246 271 246 198 172 293 352 304 223 248 254 169 232 142 256 258 235 195 255 198 185 148 125
337 338 337 331 328 332 341 337 344 2 168 154 155 151 262 301 278 329 252 214 180 217 240 261 148 173 123 90 6 309 248 218 323 192 184 192 251 252 227 231 209 176 168 146 120
337 337 336 334 337 335 339 328 34 87 107 146 330 230 264 17 323 317 251 183 185 114 5 58 64 132 61 116 221 209 220 279 196 218 206 216 236 287 307 168 184 172 165 151 141
338 336 343 345 345 332 337 333 356 356 190 204 203 251 288 324 312 348 165 125 350 77 161 305 115 230 208 231 301 305 310 317 317 230 211 225 195 257 283 118 152 154 152 151 134
341 339 345 346 338 332 351 39 121 274 314 232 247 246 262 276 311 284 185 154 128 199 140 1 255 247 253 231 255 270 288 286 291 266 229 191 215 231 231 216 178 163 148 132 133
351 348 336 341 339 343 319 334 191 4 305 295 207 209 267 161 235 261 169 189 173 198 193 185 217 185 217 240 256 249 232 259 256 322 269 136 271 196 227 244 168 195 156 150 149
355 337 330 333 333 330 280 243 268 189 44 326 301 65 51 181 232 227 211 156 177 203 200 222 238 237 217 233 221 255 255 241 259 296 241 171 210 215 191 189 171 158 153 157 165
354 332 324 326 305 305 315 343 139 102 14 332 300 222 338 250 321 286 192 160 187 182 138 239 248 227 216 222 212 242 254 246 252 265 331 220 99 202 145 165 189 173 158 159 167
348 323 319 328 307 312 242 306 132 49 331 337 312 328 327 305 269 283 234 98 153 144 275 235 159 201 251 221 226 267 282 251 226 174 251 234 169 228 168 186 160 140 158 173 161
346 321 307 308 289 319 303 32 39 51 334 321 318 319 324 267 293 299 236 233 188 168 232 279 232 191 168 161 194 198 85 184 190 190 220 196 155 213 197 146 156 156 165 177 168
350 326 319 323 311 300 359 44 53 321 299 296 311 318 288 4 336 320 297 207 223 232 12 259 314 177 173 204 172 155 155 269 125 168 178 181 197 240 157 151 155 152 165 163 173
352 345 352 351 324 335 62 45 306 303 288 292 313 322 301 2 310 330 266 218 194 180 166 242 253 184 172 160 146 141 174 225 297 244 123 189 244 74 136 134 148 142 148 164 155
346 335 2 337 278 23 58 231 220 200 272 256 317 327 314 314 314 256 289 236 162 171 194 203 303 344 142 125 15 171 74 230 219 150 168 244 149 167 147 160 162 137 118 122 117
10 27 353 2 278 40 100 253 274 271 360 243 222 279 271 300 311 307 265 243 215 189 187 168 154 249 215 202 181 124 208 223 253 175 165 132 215 216 165 172 153 117 120 128 120
356 17 0 359 41 37 333 291 269 293 215 221 232 242 265 288 295 288 268 255 162 150 178 199 157 178 268 356 122 126 241 280 233 115 249 133 266 43 156 150 119 123 124 125 119
356 277 357 31 64 319 305 301 296 301 281 244 252 216 191 285 294 269 272 291 139 168 173 186 310 264 92 160 98 105 253 241 225 131 229 127 221 54 117 125 131 130 132 125 120
32 355 329 30 82 288 323 284 324 303 272 287 249 258 319 213 300 301 286 234 207 160 203 136 170 203 198 146 120 198 233 226 156 69 219 207 91 92 128 129 131 133 134 132 126
25 317 202 308 330 332 276 290 322 332 303 313 300 334 332 230 269 262 287 293 142 179 117 166 243 201 229 54 135 220 251 350 186 216 190 170 131 144 146 140 136 133 132 124 123
43 14 350 284 299 319 2 314 303 326 267 294 325 307 318 272 226 303 302 246 323 18 157 305 265 318 93 102 199 243 273 298 204 105 110 113 105 124 126 130 138 140 133 125 125
1 342 80 282 324 358 272 299 288 318 285 266 311 304 312 254 304 279 268 241 266 293 207 146 211 204 34 127 111 272 254 191 89 85 143 149 143 130 138 141 143 135 133 131 129
Height
818 814 810 807 804 800 797 795 792 790 788 785 783 781 778 775 771 767 761 752 751 751 752 752 752 753 753 755 754 755 774 776 761 758 752 738 742 727 720 725 722 722 721 719 729
816 812 808 804 801 797 794 792 789 787 785 783 780 778 776 773 768 761 749 749 750 750 752 752 753 752 755 754 753 760 773 760 748 744 742 745 736 731 729 732 728 728 723 727 725
814 810 805 802 798 794 791 788 785 783 781 780 778 777 775 773 769 754 751 751 752 750 750 752 753 754 757 754 753 753 761 747 742 738 740 745 742 729 734 739 724 727 728 729 730
812 808 803 799 795 791 788 785 782 779 778 777 775 775 774 774 769 750 751 749 748 747 748 750 754 757 759 759 753 756 746 745 741 737 741 743 741 737 730 730 716 717 714 718 732
809 805 801 796 792 788 784 782 778 776 775 774 774 773 773 772 763 749 749 749 749 748 747 749 753 757 759 756 757 754 748 742 740 740 741 742 744 741 731 721 718 718 725 720 728
808 803 798 793 789 784 780 778 775 773 771 771 772 772 772 769 751 749 749 749 749 749 748 748 750 753 755 754 756 750 751 743 739 742 744 742 738 735 719 715 714 712 719 719 723
805 800 795 790 785 781 777 774 770 768 767 768 770 770 769 758 750 749 749 748 747 748 748 746 748 750 752 752 748 747 752 743 739 740 743 735 740 723 710 718 720 716 712 719 724
802 798 793 787 782 777 773 769 765 763 764 766 767 769 764 750 749 746 744 744 744 745 746 744 745 749 751 749 750 750 748 753 736 737 735 734 738 715 710 713 713 710 715 726 727
799 794 790 785 780 775 771 767 763 761 763 765 767 768 763 749 747 741 740 742 743 744 743 743 744 749 750 757 764 757 759 750 737 727 729 730 728 710 706 709 709 706 715 723 730
796 791 786 782 778 774 771 767 765 764 766 767 768 771 755 747 744 741 740 742 742 742 743 744 751 756 763 765 769 760 757 746 741 729 723 730 727 713 704 704 707 710 718 721 726
794 788 782 780 777 774 771 770 770 768 766 763 759 757 750 747 742 741 741 742 742 744 752 749 758 764 762 761 758 755 757 756 743 725 728 726 727 718 709 707 711 713 721 725 731
791 785 781 778 775 772 771 771 771 772 767 755 753 753 748 751 750 740 741 745 747 752 750 758 765 755 754 756 758 759 760 757 742 727 729 725 724 715 710 708 709 711 721 727 738
788 783 779 775 772 772 771 771 770 770 774 754 748 747 743 747 748 741 738 740 745 751 752 760 753 748 751 755 758 757 757 755 751 735 720 722 725 720 710 706 706 707 713 722 726
787 782 777 773 773 770 769 768 768 768 783 752 744 742 743 742 745 733 732 736 742 747 748 753 746 746 751 752 754 759 746 745 744 746 748 716 749 723 714 713 707 711 718 719 728
784 780 776 771 771 769 768 767 767 769 785 749 743 739 740 743 738 728 726 731 740 745 750 748 744 746 746 742 746 750 741 744 741 746 748 723 735 710 714 719 713 714 712 718 720
781 778 773 771 769 766 765 765 768 781 771 755 744 742 742 740 737 729 726 727 730 743 746 742 738 742 739 736 740 739 745 742 740 746 756 725 725 727 719 705 711 713 711 712 716
778 775 771 770 768 764 764 765 782 776 763 754 748 743 745 741 734 731 734 736 739 746 751 737 734 734 733 741 739 745 755 749 752 753 747 712 720 714 687 697 700 708 713 713 711
775 773 771 768 766 765 764 774 774 767 769 758 750 746 749 743 743 742 734 738 745 745 740 739 747 725 724 733 739 747 753 739 736 741 730 708 718 702 682 686 687 695 702 712 714
775 774 772 770 767 765 771 792 782 776 770 757 754 752 743 743 747 749 737 731 728 734 749 738 728 714 713 719 729 748 749 740 735 718 724 719 695 685 683 689 691 699 703 713 715
779 775 774 768 767 766 781 780 775 770 762 761 760 756 751 745 745 741 736 723 721 730 734 730 737 718 711 718 727 730 736 739 739 731 726 715 699 709 697 691 694 701 712 720 720
780 781 774 769 769 777 798 781 769 757 759 765 764 761 753 748 739 730 730 719 718 722 728 729 733 734 717 721 724 735 744 733 721 712 725 728 710 682 682 684 691 708 710 714 719
789 789 776 771 787 797 798 780 766 758 757 758 764 770 761 751 737 729 726 718 709 716 724 722 736 728 722 714 708 719 721 716 715 706 711 713 713 677 678 683 695 706 710 716 718
801 796 779 774 808 805 790 779 767 761 757 754 756 759 753 753 740 731 720 707 707 710 719 721 735 726 724 724 727 738 726 715 705 711 703 710 707 680 682 687 694 702 713 721 728
803 807 795 793 799 797 799 785 776 760 756 750 747 744 740 752 743 733 724 709 707 705 704 712 725 721 725 711 715 731 715 698 700 711 702 695 695 694 692 695 700 704 714 724 734
812 818 815 815 802 803 800 786 781 775 758 752 746 743 741 747 746 733 715 708 707 706 713 714 716 714 706 705 709 712 696 681 693 691 693 692 695 695 691 690 701 708 718 727 739
821 822 817 813 808 804 797 787 785 774 769 755 755 742 738 733 733 726 719 714 713 712 714 718 716 708 703 707 709 699 690 686 680 684 684 685 696 691 693 697 706 714 719 729 742
820 820 820 812 809 808 801 794 785 781 763 753 749 744 734 729 721 715 712 710 712 716 718 718 719 715 709 704 710 717 690 676 674 678 675 690 693 692 703 708 711 719 723 731 744